User: anonymous   Login
Location: Unspecified
(0.0000°N, 0.0000°E)
Time: 04:38:14
(UTC+00:00)
Language:

Kosmos-1704 - Orbit

View from above orbital plane
View from above orbital plane
View from above satellite
View from above satellite

Ground track
Ground track

The orbit data is extracted from the following two-line orbital elements,

1 16291U 85110A   18116.63344139 +.00000035 +00000-0 +20783-4 0  9996
2 16291 082.9359 168.6154 0032726 068.6298 086.3037 13.74600595625399
Epoch (UTC): 26 April 2018 15:12:09
Eccentricity: 0.0032726
inclination: 82.9359°
perigee height: 959 km
apogee height: 1007 km
right ascension of ascending node: 168.6154°
argument of perigee: 68.6298°
revolutions per day: 13.74600595
mean anomaly at epoch: 86.3037°
orbit number at epoch: 62539

The dashed part of the orbit path shows where the satellite is in the earth's shadow,  

DLR